Terminal Aerodrome Forecast
Issued by NWS

Home | Current Version | Previous Version | Text Only | Print | Product List | Glossary Off
Versions: 1 2 3 4 5 6 7 8 9 10 11 12 13 14 15 16 17 18 19 20 21 22 23 24 25 26

000
FTUS43 KLOT 131509 AAA
TAFMDW
TAF AMD
KMDW 131509Z 1315/1412 02011KT P6SM SCT025 BKN120
      TEMPO 1316/1319 BKN025
     FM132100 05010KT P6SM SCT025 OVC100
     FM140300 06005KT P6SM FEW025 SCT050 OVC120=

USA.gov is the U.S. government's official web portal to all federal, state and local government web resources and services.